Cloud_Cover
0 5 84 52 4 0 5 98 100 100 81 98 90 54 6 43 0 0 0 0 0 0 0 0 0 0 7 69 100 100 100 100 100 100 100 99 98 100 100 100 100 100 100 100
0 0 0 0 4 5 5 82 99 43 96 100 44 99 20 34 2 0 0 0 0 0 0 0 0 2 86 12 90 100 100 100 100 100 100 100 100 100 100 100 100 100 100 100
0 0 0 0 0 0 4 68 100 99 88 48 94 100 100 96 5 0 0 0 0 0 0 0 0 0 70 90 100 100 100 100 100 100 98 100 100 100 100 64 86 92 100 88
0 0 0 0 0 0 0 0 40 100 100 100 100 95 100 71 4 0 0 0 0 0 0 0 0 4 5 100 100 100 99 100 100 99 100 100 100 92 59 85 98 100 67 99
0 0 1 5 0 0 0 0 0 25 88 19 58 98 100 6 6 1 0 0 0 0 0 0 0 5 5 44 100 86 100 100 100 100 73 99 60 84 74 100 100 100 85 34
0 1 1 4 4 5 0 0 0 0 5 5 100 100 100 9 25 3 0 0 0 0 0 0 0 0 5 45 97 100 100 54 97 98 100 97 96 42 67 25 5 5 0 0
0 0 0 1 7 2 0 0 0 0 0 5 100 100 93 100 99 4 0 0 0 0 0 0 0 0 0 0 3 1 66 100 100 100 97 96 93 8 4 1 0 0 0 0
0 0 0 0 1 0 3 0 0 0 0 23 100 100 100 100 97 8 0 4 0 0 0 0 0 0 0 0 0 0 4 91 100 100 100 100 29 1 0 0 0 0 0 0
0 0 0 0 3 0 0 0 0 0 0 3 100 100 100 100 100 100 22 4 2 0 0 0 0 0 0 0 0 0 77 93 100 100 93 100 32 0 0 0 0 0 0 0
0 0 0 1 0 0 0 0 0 0 0 0 100 100 100 100 100 100 84 3 0 0 0 0 0 0 0 0 0 43 81 100 100 100 100 97 36 0 0 0 0 0 0 0
0 0 0 1 0 0 0 0 0 0 0 0 100 100 97 100 100 99 100 45 0 0 0 0 0 0 0 0 0 10 44 100 100 88 67 68 0 0 0 0 0 0 0 0
4 0 0 2 5 0 0 0 0 0 0 0 51 100 8 100 100 100 100 94 4 0 0 0 1 0 0 0 0 0 1 30 38 42 47 15 0 0 20 0 0 0 0 0
0 0 0 0 4 24 0 0 0 0 0 0 0 21 1 100 100 100 100 100 83 36 0 0 0 0 1 0 0 0 0 0 2 0 4 0 0 0 0 0 0 0 0 0
0 0 0 0 0 1 0 0 0 0 0 0 0 0 5 100 100 100 100 100 96 100 17 0 0 0 3 1 2 0 0 0 0 0 0 0 0 0 0 0 0 0 0 0
0 0 0 0 0 0 0 0 0 0 0 0 0 0 50 100 100 100 100 100 100 74 90 5 0 2 1 2 0 0 0 0 0 0 0 0 0 0 0 0 0 0 0 15
0 0 0 0 0 0 0 0 0 0 0 0 0 0 24 100 100 100 60 100 96 34 98 78 97 10 2 4 1 0 0 0 0 0 0 0 0 0 1 5 2 4 3 5
1 0 0 0 0 0 0 0 0 0 0 0 0 0 0 99 100 100 100 99 100 87 86 99 100 42 4 5 5 0 0 0 0 0 0 0 0 1 88 23 2 2 5 34
43 31 14 1 0 0 0 0 0 0 0 0 0 0 0 0 52 100 100 100 100 100 100 100 100 63 23 23 18 5 5 0 0 0 0 4 4 1 0 0 0 3 5 9
26 31 40 2 1 0 0 0 0 0 0 0 0 0 0 0 0 78 100 100 100 100 97 100 100 61 48 100 11 59 6 0 12 73 7 18 47 3 2 0 1 0 5 79
82 26 44 56 43 2 0 0 0 0 0 0 0 0 0 0 0 0 98 100 100 100 100 27 100 77 5 29 14 96 38 62 61 85 14 97 70 20 5 61 6 5 83 100
70 79 74 100 76 52 3 0 0 0 0 0 0 0 0 0 0 0 0 96 100 100 52 8 15 97 100 89 100 62 5 22 69 71 79 42 45 16 5 8 5 5 88 100
47 50 22 38 13 6 2 2 0 0 0 0 0 0 0 0 0 0 0 47 100 100 20 100 100 100 100 100 90 7 4 5 5 4 39 27 56 6 5 99 7 51 22 84
53 29 4 32 6 0 0 3 0 0 0 0 0 0 0 0 0 0 0 2 92 100 100 100 100 79 100 100 100 30 5 6 5 5 5 5 5 33 100 97 79 97 45 69
14 5 31 5 0 0 0 0 0 0 0 0 0 0 0 0 0 0 0 0 41 100 100 88 100 100 100 100 97 75 100 95 100 36 27 82 100 100 68 100 100 100 100 94
73 53 28 18 0 0 1 0 0 0 0 0 0 0 0 0 0 0 0 0 0 1 99 100 100 100 100 100 100 100 100 100 100 100 100 100 100 93 100 100 100 99 100 97
64 98 100 100 20 6 0 4 0 0 0 0 0 0 0 0 0 0 0 0 0 3 3 95 89 84 100 100 100 100 100 100 100 100 100 100 100 99 100 100 100 100 96 100
91 87 100 100 92 3 6 19 0 0 0 0 1 0 0 8 0 5 0 2 14 73 29 100 88 71 100 90 100 100 100 100 100 100 100 97 100 100 100 100 100 96 100 100